This demonstration page uses our WeatherBlox Daily Observations layout. Learn more.

Left ArrowRight Arrow

Hourly Observations for June 2, 2021

Temp ( °F °C ) Dew Point ( °F °C ) Humidity (%) Winds ( mph kmh ) Pressure ( in mb ) Visibility ( mi km ) Precip ( " mm )
12:53 am 00:53 Cloudy with Light Rain 63 17.2 61 16.1 93 93 N N/A 30.14 1021 9 14 0.01 0.25
1:53 am 01:53 Cloudy with Light Rain 63 17.2 61 16.1 93 93 N 3 6 30.12 1020 10 16 0.01 0.25
2:53 am 02:53 Cloudy with Light Rain 63 17.2 61 16.1 93 93 N N/A 30.11 1020 9 14 0.01 0.25
3:41 am 03:41 Cloudy with Light Rain 61 16.1 59 15 93 93 NNW 6 9 30.10 1019 8 13 0.03 0.76
3:53 am 03:53 Cloudy with Light Rain 61 16.1 59 15 93 93 N N/A 30.10 1019 10 16 0.03 0.76
4:53 am 04:53 Cloudy 61 16.1 59 15 93 93 N N/A 30.09 1019 9 14 0.00 0.00
5:53 am 05:53 Cloudy with Light Rain 61 16.1 59 15 93 93 NNW 5 7 30.09 1019 5 8 0.03 0.76
6:53 am 06:53 Cloudy with Light Rain 61 16.1 60 15.6 97 97 N N/A 30.08 1019 3 4 0.01 0.25
7:20 am 07:20 Cloudy with Light Rain 61 16.1 60 15.6 97 97 N N/A 30.08 1019 3 5 0.01 0.25
7:39 am 07:39 Cloudy with Rain 61 16.1 60 15.6 97 97 N N/A 30.08 1019 2 3 0.03 0.76
7:53 am 07:53 Cloudy with Light Rain 62 16.7 60 15.6 93 93 N N/A 30.08 1019 3 4 0.05 1.27
8:10 am 08:10 Cloudy with Light Rain 62 16.7 61 16.1 96 96 N N/A 30.08 1019 3 5 0.01 0.25
8:19 am 08:19 Cloudy with Rain 62 16.7 61 16.1 96 96 N N/A 30.08 1019 2 3 0.04 1.02
8:38 am 08:38 Cloudy with Heavy Rain 62 16.7 61 16.1 96 96 N N/A 30.08 1019 1 2 0.12 3.05
8:44 am 08:44 Cloudy with Rain 62 16.7 61 16.1 96 96 N N/A 30.08 1019 2 3 0.14 3.56
8:53 am 08:53 Cloudy with Heavy Rain 62 16.7 61 16.1 96 96 E 5 7 30.08 1019 2 2 0.20 5.08
9:27 am 09:27 Cloudy with Rain 63 17.2 62 16.7 97 97 E 6 9 30.07 1018 2 3 0.20 5.08
9:38 am 09:38 Cloudy with Rain 63 17.2 62 16.7 97 97 ESE 3 6 30.07 1018 2 3 0.24 6.10
9:48 am 09:48 Cloudy with Rain 63 17 63 17 100 100 ESE 3 6 30.07 1018 2 3 0.27 6.86
9:53 am 09:53 Cloudy with Light Rain 63 17.2 62 16.7 97 97 VRB 3 6 30.08 1019 3 5 0.27 6.86
10:53 am 10:53 Cloudy with Light Rain 64 17.8 63 17.2 96 96 VRB 5 7 30.06 1018 4 6 0.04 1.02
11:23 am 11:23 Cloudy with Light Rain 64 17.8 63 17.2 96 96 VRB 3 6 30.06 1018 4 6 0.03 0.76
11:53 am 11:53 Cloudy with Light Rain 65 18.3 63 17.2 93 93 VRB 3 6 30.06 1018 5 8 0.05 1.27
12:53 pm 12:53 Cloudy with Light Rain 65 18.3 64 17.8 97 97 VRB 6 9 30.05 1018 8 13 0.02 0.51
1:28 pm 13:28 Cloudy with Rain 65 18.3 63 17.2 93 93 VRB 3 6 30.05 1018 2 3 0.06 1.52
1:37 pm 13:37 Cloudy with Light Rain 65 18.3 63 17.2 93 93 VRB 3 6 30.05 1018 4 6 0.08 2.03
1:53 pm 13:53 Cloudy with Light Rain 66 18.9 64 17.8 93 93 N N/A 30.04 1017 4 6 0.10 2.54
2:08 pm 14:08 Cloudy with Light Rain 66 18.9 64 17.8 93 93 N N/A 30.04 1017 6 10 0.01 0.25
2:34 pm 14:34 Cloudy with Light Rain 65 18.3 64 17.8 97 97 VRB 5 7 30.03 1017 6 10 0.02 0.51
2:43 pm 14:43 Cloudy with Light Rain 66 18.9 63 17.2 90 90 VRB 3 6 30.02 1017 8 13 0.02 0.51
2:53 pm 14:53 Cloudy with Light Rain 66 18.9 64 17.8 93 93 VRB 5 7 30.02 1017 4 6 0.03 0.76
2:58 pm 14:58 Cloudy with Rain 66 18.9 64 17.8 93 93 VRB 3 6 30.02 1017 3 4 0.01 0.25
3:18 pm 15:18 Cloudy with Light Rain 65 18.3 64 17.8 97 97 VRB 3 6 30.01 1016 5 8 0.04 1.02
3:27 pm 15:27 Cloudy with Mist and Fog 66 18.9 64 17.8 93 93 VRB 5 7 30.01 1016 6 10 0.04 1.02
3:43 pm 15:43 Cloudy with Light Rain 66 18.9 64 17.8 93 93 E 6 9 29.99 1016 3 4 0.04 1.02
3:53 pm 15:53 Cloudy with Light Rain 66 18.9 64 17.8 93 93 E 6 9 29.99 1016 3 4 0.05 1.27
4:07 pm 16:07 Cloudy with Light Rain 66 18.9 64 17.8 93 93 N N/A 29.99 1016 2 3 0.03 0.76
4:14 pm 16:14 Cloudy with Light Rain 66 18.9 64 17.8 93 93 VRB 3 6 29.99 1016 2 2 0.04 1.02
4:18 pm 16:18 Cloudy with Light Rain 66 18.9 64 17.8 93 93 VRB 3 6 29.99 1016 2 3 0.04 1.02
4:25 pm 16:25 Cloudy with Light Rain 65 18.3 64 17.8 97 97 ESE 5 7 29.98 1015 3 4 0.05 1.27
4:34 pm 16:34 Cloudy with Light Rain 66 18.9 64 17.8 93 93 VRB 3 6 29.97 1015 4 6 0.05 1.27
4:48 pm 16:48 Cloudy with Light Rain 66 19 64 18 94 94 VRB 3 6 29.96 1014 3 4 0.05 1.27
4:53 pm 16:53 Cloudy with Light Rain 66 18.9 64 17.8 93 93 N N/A 29.96 1015 2 3 0.06 1.52
5:01 pm 17:01 Cloudy with Light Rain 65 18.3 64 17.8 97 97 N N/A 29.96 1015 2 2 0.02 0.51
5:16 pm 17:16 Cloudy with Light Rain 65 18.3 63 17.2 93 93 VRB 3 6 29.96 1015 2 3 0.05 1.27
5:23 pm 17:23 Cloudy with Light Rain 65 18.3 64 17.8 97 97 N N/A 29.96 1015 2 3 0.05 1.27
5:36 pm 17:36 Cloudy with Light Rain 65 18.3 64 17.8 97 97 VRB 3 6 29.95 1014 2 3 0.06 1.52
5:53 pm 17:53 Cloudy with Light Rain 65 18.3 64 17.8 97 97 VRB 5 7 29.94 1014 4 6 0.06 1.52
6:24 pm 18:24 Cloudy with Mist and Fog 65 18.3 64 17.8 97 97 VRB 6 9 29.94 1014 3 5 0.00 0.00
6:43 pm 18:43 Cloudy with Light Rain 65 18.3 64 17.8 97 97 VRB 3 6 29.93 1014 3 5 0.00 0.00
6:53 pm 18:53 Cloudy with Light Rain 65 18.3 64 17.8 97 97 VRB 5 7 29.93 1014 3 5 0.00 0.00
7:02 pm 19:02 Cloudy with Mist and Fog 66 18.9 64 17.8 93 93 S 5 7 29.92 1013 4 6 0.01 0.25
7:53 pm 19:53 Cloudy 65 18.3 64 17.8 97 97 VRB 3 6 29.94 1014 8 13 0.01 0.25
8:26 pm 20:26 Cloudy with Light Rain 65 18.3 64 17.8 97 97 N N/A 29.94 1014 3 4 0.00 0.00
8:30 pm 20:30 Cloudy with Light Rain 65 18.3 64 17.8 97 97 N N/A 29.94 1014 2 2 0.01 0.25
8:43 pm 20:43 Cloudy with Light Rain 65 18.3 64 17.8 97 97 N N/A 29.94 1014 2 3 0.02 0.51
8:47 pm 20:47 Cloudy with Light Rain 64 18 64 18 100 100 N N/A 29.94 1014 3 4 0.02 0.51
8:53 pm 20:53 Cloudy with Light Rain 65 18.3 64 17.8 97 97 N N/A 29.94 1014 3 5 0.02 0.51
9:01 pm 21:01 Cloudy with Light Rain 65 18.3 64 17.8 97 97 N N/A 29.94 1014 3 5 0.01 0.25
9:53 pm 21:53 Cloudy with Mist and Fog 65 18.3 64 17.8 97 97 N N/A 29.94 1014 3 5 0.02 0.51
10:53 pm 22:53 Cloudy 65 18.3 64 17.8 97 97 N N/A 29.94 1014 7 11 0.01 0.25
11:53 pm 23:53 Cloudy with Mist and Fog 66 18.9 64 17.8 93 93 N N/A 29.95 1014 6 10 N/A

Powered by AerisWeather